Juan Santamaria International Airport
MROC : now visible

Airfield :











YOU CAN JOIN US ON...

 
LOGIN :

Register | Disclaimer

   EN    FR    IT 

 









Legend :    VFR   Marginal VFR   IFR   Intensive IFR   Very Intensive IFR
Visi :
Ceiling :
>= 8 km
>= 3000ft
5 to 8 km
1000 to 3000 ft
1500m to 5 km
500 to 1000 ft
800 to 1500m
200 to 500 ft
< 800m
< 200 ft
Symbols :   Thunderstorms  Fog  Heavy snow  Heavy precipitations  Wind > 20 kt






- Airport Elevation : 3021 ft
- IATA code : SJO


MROC - Juan Santamaria International

CURRENT METAR :
  • 190700Z 11009KT CAVOK 22/19 A2997 NOSIG

EXPIRED METARs :
  • 190600Z 11011KT CAVOK 23/19 A3001 NOSIG
  • 190500Z 10010KT CAVOK 23/18 A3002 NOSIG

TAF MROC
Valid from the 19 at 06:00 until the 20 at 06:00 UTC


190500Z 1906/2006 08007KT 9999 FEW030 TX29/1918Z TN19/1910Z
TEMPO 1906/1910 VRB02KT BCFG
BECMG 1916/1918 24009KT
TEMPO 1920/1924 TSRA SCT020CB
BECMG 2001/2003 07005KT
MHTG FIR / North America



MET'MAP, your aeronautical weather chart ! - Copyright ORBIFLY December 2007 - Disclaimer

ORBIFLY MET'MAP TEAM :

Programming & Development : Alexandra Zaïnal
Concept & original design : Baudouin d'Aumeries
Assistance for programming : Marc-Olivier Méhu
Technical & hardware support : Manuel Goepfert

Contact : metmap@orbifly.com




SOURCES & CREDITS :

   NOAA       Earth
Advisory